Time,TemperatureF,DewpointF,PressureIn,WindDirection,WindDirectionDegrees,WindSpeedMPH,WindSpeedGustMPH,Humidity,HourlyPrecipIn,Conditions,Clouds,dailyrainin,SoftwareType,DateUTC
2013-01-20 00:02:00,29.0,9.0,30.15,NW,311,2.0,4.0,41,0.00,,,-99.99,,2013-01-20 07:02:00,
2013-01-20 00:12:00,30.0,9.0,30.14,NNW,333,1.0,3.0,39,0.00,,,-99.99,,2013-01-20 07:12:00,
2013-01-20 00:22:00,30.0,9.0,30.14,ENE,60,0.0,2.0,41,0.00,,,-99.99,,2013-01-20 07:22:00,
2013-01-20 00:32:00,29.0,9.0,30.14,WNW,300,0.0,3.0,42,0.00,,,-99.99,,2013-01-20 07:32:00,
2013-01-20 00:42:00,31.0,8.0,30.14,WNW,282,2.0,3.0,38,0.00,,,-99.99,,2013-01-20 07:42:00,
2013-01-20 00:52:00,31.0,10.0,30.15,SSW,207,5.0,5.0,41,0.00,,,-99.99,,2013-01-20 07:52:00,
2013-01-20 01:02:00,30.0,11.0,30.15,SSW,213,3.0,6.0,44,0.00,,,-99.99,,2013-01-20 08:02:00,
2013-01-20 01:12:00,32.0,11.0,30.14,NW,308,3.0,5.0,42,0.00,,,-99.99,,2013-01-20 08:12:00,
2013-01-20 01:22:00,31.0,11.0,30.14,NNW,332,2.0,5.0,43,0.00,,,-99.99,,2013-01-20 08:22:00,
2013-01-20 01:32:00,31.0,12.0,30.14,WSW,257,4.0,6.0,45,0.00,,,-99.99,,2013-01-20 08:32:00,
2013-01-20 01:42:00,30.0,12.0,30.14,NW,323,2.0,7.0,46,0.00,,,-99.99,,2013-01-20 08:42:00,
2013-01-20 01:52:00,30.0,11.0,30.14,North,350,3.0,5.0,45,0.00,,,-99.99,,2013-01-20 08:52:00,
2013-01-20 02:02:00,32.0,11.0,30.15,NW,314,4.0,6.0,44,0.00,,,-99.99,,2013-01-20 09:02:00,
2013-01-20 02:12:00,31.0,11.0,30.15,NNW,330,2.0,4.0,44,0.00,,,-99.99,,2013-01-20 09:12:00,
2013-01-20 02:22:00,31.0,11.0,30.14,North,355,2.0,3.0,45,0.00,,,-99.99,,2013-01-20 09:22:00,
2013-01-20 02:33:00,31.0,12.0,30.14,SSW,197,1.0,3.0,44,0.00,,,-99.99,,2013-01-20 09:33:00,
2013-01-20 02:42:00,31.0,12.0,30.14,SSW,205,4.0,6.0,46,0.00,,,-99.99,,2013-01-20 09:42:00,
2013-01-20 02:52:00,32.0,11.0,30.14,SSW,206,2.0,5.0,43,0.00,,,-99.99,,2013-01-20 09:52:00,
2013-01-20 03:02:00,31.0,11.0,30.15,SW,233,3.0,3.0,45,0.00,,,-99.99,,2013-01-20 10:02:00,
2013-01-20 03:12:00,31.0,11.0,30.14,SSW,194,5.0,5.0,42,0.00,,,-99.99,,2013-01-20 10:12:00,
2013-01-20 03:22:00,30.0,12.0,30.14,South,181,6.0,8.0,46,0.00,,,-99.99,,2013-01-20 10:22:00,
2013-01-20 03:32:00,30.0,12.0,30.13,SSE,166,4.0,8.0,46,0.00,,,-99.99,,2013-01-20 10:32:00,
2013-01-20 03:42:00,30.0,12.0,30.13,South,183,4.0,7.0,46,0.00,,,-99.99,,2013-01-20 10:42:00,
2013-01-20 03:52:00,30.0,11.0,30.12,SE,146,7.0,8.0,46,0.00,,,-99.99,,2013-01-20 10:52:00,
2013-01-20 04:02:00,30.0,12.0,30.12,SSE,160,3.0,8.0,46,0.00,,,-99.99,,2013-01-20 11:02:00,
2013-01-20 04:12:00,28.0,12.0,30.12,ESE,107,3.0,6.0,49,0.00,,,-99.99,,2013-01-20 11:12:00,
2013-01-20 04:22:00,28.0,12.0,30.12,SSE,152,6.0,7.0,50,0.00,,,-99.99,,2013-01-20 11:22:00,
2013-01-20 04:32:00,28.0,12.0,30.12,SSE,161,7.0,8.0,51,0.00,,,-99.99,,2013-01-20 11:32:00,
2013-01-20 04:42:00,28.0,12.0,30.11,South,180,7.0,9.0,50,0.00,,,-99.99,,2013-01-20 11:42:00,
2013-01-20 04:53:00,29.0,12.0,30.11,South,186,8.0,10.0,50,0.00,,,-99.99,,2013-01-20 11:53:00,
2013-01-20 05:03:00,30.0,12.0,30.11,SSW,202,5.0,9.0,46,0.00,,,-99.99,,2013-01-20 12:03:00,
2013-01-20 05:12:00,30.0,11.0,30.11,SSE,166,4.0,10.0,45,0.00,,,-99.99,,2013-01-20 12:12:00,
2013-01-20 05:22:00,28.0,11.0,30.12,East,89,3.0,7.0,47,0.00,,,-99.99,,2013-01-20 12:22:00,
2013-01-20 05:33:00,29.0,11.0,30.12,South,170,7.0,9.0,49,0.00,,,-99.99,,2013-01-20 12:33:00,
2013-01-20 05:43:00,29.0,11.0,30.12,SSE,152,5.0,9.0,47,0.00,,,-99.99,,2013-01-20 12:43:00,
2013-01-20 05:52:00,29.0,11.0,30.13,South,176,5.0,8.0,47,0.00,,,-99.99,,2013-01-20 12:52:00,
2013-01-20 06:02:00,28.0,11.0,30.13,SSE,153,4.0,7.0,49,0.00,,,-99.99,,2013-01-20 13:02:00,
2013-01-20 06:12:00,26.0,11.0,30.14,NNE,27,1.0,5.0,53,0.00,,,-99.99,,2013-01-20 13:12:00,
2013-01-20 06:23:00,27.0,11.0,30.14,South,173,4.0,6.0,53,0.00,,,-99.99,,2013-01-20 13:23:00,
2013-01-20 06:33:00,26.0,12.0,30.14,SSE,161,3.0,7.0,54,0.00,,,-99.99,,2013-01-20 13:33:00,
2013-01-20 06:42:00,25.0,12.0,30.14,NNE,12,5.0,12.0,57,0.00,,,-99.99,,2013-01-20 13:42:00,
2013-01-20 06:52:00,25.0,12.0,30.15,NE,42,5.0,8.0,57,0.00,,,-99.99,,2013-01-20 13:52:00,
2013-01-20 07:02:00,24.0,11.0,30.18,NNW,336,5.0,6.0,57,0.00,,,-99.99,,2013-01-20 14:02:00,
2013-01-20 07:12:00,24.0,12.0,30.19,NNW,347,4.0,11.0,59,0.00,,,-99.99,,2013-01-20 14:12:00,
2013-01-20 07:22:00,23.0,12.0,30.19,NNW,333,3.0,4.0,61,0.00,,,-99.99,,2013-01-20 14:22:00,
2013-01-20 07:32:00,23.0,12.0,30.20,SW,229,5.0,19.0,61,0.00,,,-99.99,,2013-01-20 14:32:00,
2013-01-20 07:42:00,23.0,12.0,30.20,NW,311,2.0,5.0,62,0.00,,,-99.99,,2013-01-20 14:42:00,
2013-01-20 07:52:00,23.0,12.0,30.20,NW,305,3.0,4.0,63,0.00,,,-99.99,,2013-01-20 14:52:00,
2013-01-20 08:03:00,23.0,13.0,30.20,WSW,240,5.0,7.0,65,0.00,,,-99.99,,2013-01-20 15:03:00,
2013-01-20 08:12:00,25.0,14.0,30.20,SE,145,2.0,7.0,62,0.00,,,-99.99,,2013-01-20 15:12:00,
2013-01-20 08:23:00,25.0,13.0,30.21,SSE,166,1.0,2.0,63,0.00,,,-99.99,,2013-01-20 15:23:00,
2013-01-20 08:33:00,27.0,14.0,30.21,SSW,199,1.0,3.0,58,0.00,,,-99.99,,2013-01-20 15:33:00,
2013-01-20 08:42:00,30.0,14.0,30.21,SE,146,4.0,5.0,52,0.00,,,-99.99,,2013-01-20 15:42:00,
2013-01-20 08:52:00,32.0,14.0,30.23,ESE,111,5.0,7.0,47,0.00,,,-99.99,,2013-01-20 15:52:00,
2013-01-20 09:02:00,33.0,14.0,30.24,SSE,147,3.0,9.0,46,0.00,,,-99.99,,2013-01-20 16:02:00,
2013-01-20 09:12:00,34.0,12.0,30.23,SSE,157,3.0,7.0,41,0.00,,,-99.99,,2013-01-20 16:12:00,
2013-01-20 09:23:00,34.0,12.0,30.23,ESE,104,4.0,7.0,40,0.00,,,-99.99,,2013-01-20 16:23:00,
2013-01-20 09:33:00,36.0,11.0,30.24,South,171,4.0,9.0,35,0.00,,,-99.99,,2013-01-20 16:33:00,
2013-01-20 09:42:00,38.0,10.0,30.24,SE,145,4.0,7.0,31,0.00,,,-99.99,,2013-01-20 16:42:00,
2013-01-20 09:52:00,38.0,9.0,30.24,South,181,6.0,7.0,30,0.00,,,-99.99,,2013-01-20 16:52:00,
2013-01-20 10:03:00,39.0,9.0,30.24,South,169,6.0,8.0,29,0.00,,,-99.99,,2013-01-20 17:03:00,
2013-01-20 10:12:00,40.0,8.0,30.24,South,183,4.0,8.0,27,0.00,,,-99.99,,2013-01-20 17:12:00,
2013-01-20 10:22:00,42.0,9.0,30.24,SSW,196,4.0,6.0,25,0.00,,,-99.99,,2013-01-20 17:22:00,
2013-01-20 10:33:00,43.0,9.0,30.24,SSW,211,4.0,5.0,24,0.00,,,-99.99,,2013-01-20 17:33:00,
2013-01-20 10:42:00,46.0,8.0,30.24,South,188,1.0,4.0,22,0.00,,,-99.99,,2013-01-20 17:42:00,
2013-01-20 10:52:00,47.0,7.0,30.24,SE,125,4.0,6.0,20,0.00,,,-99.99,,2013-01-20 17:52:00,
2013-01-20 11:02:00,47.0,7.0,30.24,East,92,6.0,9.0,19,0.00,,,-99.99,,2013-01-20 18:02:00,
2013-01-20 11:12:00,49.0,7.0,30.23,ENE,57,9.0,12.0,18,0.00,,,-99.99,,2013-01-20 18:12:00,
2013-01-20 11:23:00,48.0,7.0,30.23,East,87,12.0,15.0,18,0.00,,,-99.99,,2013-01-20 18:23:00,
2013-01-20 11:33:00,48.0,7.0,30.23,ENE,60,8.0,12.0,18,0.00,,,-99.99,,2013-01-20 18:33:00,
2013-01-20 11:42:00,50.0,5.0,30.21,East,88,8.0,12.0,16,0.00,,,-99.99,,2013-01-20 18:42:00,
2013-01-20 11:53:00,48.0,5.0,30.21,ENE,73,17.0,24.0,16,0.00,,,-99.99,,2013-01-20 18:53:00,
2013-01-20 12:02:00,46.0,8.0,30.23,ENE,60,20.0,26.0,21,0.00,,,-99.99,,2013-01-20 19:02:00,
2013-01-20 12:12:00,45.0,7.0,30.21,East,98,15.0,23.0,21,0.00,,,-99.99,,2013-01-20 19:12:00,
2013-01-20 12:22:00,46.0,8.0,30.21,ENE,64,14.0,23.0,21,0.00,,,-99.99,,2013-01-20 19:22:00,
2013-01-20 12:33:00,45.0,8.0,30.21,NE,46,21.0,23.0,21,0.00,,,-99.99,,2013-01-20 19:33:00,
2013-01-20 12:42:00,44.0,8.0,30.20,ENE,67,14.0,21.0,22,0.00,,,-99.99,,2013-01-20 19:42:00,
2013-01-20 12:52:00,45.0,8.0,30.20,ENE,61,13.0,20.0,22,0.00,,,-99.99,,2013-01-20 19:52:00,
2013-01-20 13:02:00,45.0,9.0,30.20,ENE,76,11.0,19.0,22,0.00,,,-99.99,,2013-01-20 20:02:00,
2013-01-20 13:12:00,45.0,9.0,30.19,East,101,7.0,20.0,23,0.00,,,-99.99,,2013-01-20 20:12:00,
2013-01-20 13:22:00,46.0,9.0,30.19,ENE,60,11.0,20.0,22,0.00,,,-99.99,,2013-01-20 20:22:00,
2013-01-20 13:33:00,46.0,8.0,30.19,East,97,13.0,16.0,21,0.00,,,-99.99,,2013-01-20 20:33:00,
2013-01-20 13:42:00,45.0,8.0,30.19,ENE,77,8.0,15.0,21,0.00,,,-99.99,,2013-01-20 20:42:00,
2013-01-20 13:53:00,46.0,8.0,30.19,ENE,77,11.0,14.0,21,0.00,,,-99.99,,2013-01-20 20:53:00,
2013-01-20 14:03:00,47.0,8.0,30.19,ENE,59,8.0,13.0,21,0.00,,,-99.99,,2013-01-20 21:03:00,
2013-01-20 14:13:00,45.0,8.0,30.18,NE,56,5.0,15.0,21,0.00,,,-99.99,,2013-01-20 21:13:00,
2013-01-20 14:23:00,46.0,8.0,30.18,ENE,67,7.0,14.0,21,0.00,,,-99.99,,2013-01-20 21:23:00,
2013-01-20 14:33:00,47.0,8.0,30.18,East,92,9.0,15.0,20,0.00,,,-99.99,,2013-01-20 21:33:00,
2013-01-20 14:43:00,46.0,8.0,30.18,East,91,11.0,11.0,21,0.00,,,-99.99,,2013-01-20 21:43:00,
2013-01-20 14:52:00,45.0,8.0,30.18,East,79,8.0,11.0,22,0.00,,,-99.99,,2013-01-20 21:52:00,
2013-01-20 15:03:00,45.0,8.0,30.18,ENE,71,5.0,12.0,22,0.00,,,-99.99,,2013-01-20 22:03:00,
2013-01-20 15:12:00,45.0,8.0,30.18,ENE,57,3.0,9.0,21,0.00,,,-99.99,,2013-01-20 22:12:00,
2013-01-20 15:22:00,46.0,8.0,30.18,NE,47,5.0,7.0,21,0.00,,,-99.99,,2013-01-20 22:22:00,
2013-01-20 15:33:00,45.0,8.0,30.17,ESE,118,7.0,11.0,22,0.00,,,-99.99,,2013-01-20 22:33:00,
2013-01-20 15:43:00,45.0,8.0,30.18,ENE,57,3.0,11.0,22,0.00,,,-99.99,,2013-01-20 22:43:00,
2013-01-20 15:52:00,44.0,9.0,30.18,East,90,8.0,10.0,23,0.00,,,-99.99,,2013-01-20 22:52:00,
2013-01-20 16:03:00,44.0,9.0,30.17,East,91,10.0,10.0,23,0.00,,,-99.99,,2013-01-20 23:03:00,
2013-01-20 16:12:00,43.0,9.0,30.17,East,94,6.0,11.0,24,0.00,,,-99.99,,2013-01-20 23:12:00,
2013-01-20 16:23:00,43.0,10.0,30.17,ENE,66,9.0,11.0,25,0.00,,,-99.99,,2013-01-20 23:23:00,
2013-01-20 16:33:00,42.0,11.0,30.17,ENE,78,11.0,15.0,27,0.00,,,-99.99,,2013-01-20 23:33:00,
2013-01-20 16:42:00,41.0,11.0,30.17,East,84,13.0,15.0,29,0.00,,,-99.99,,2013-01-20 23:42:00,
2013-01-20 16:53:00,40.0,11.0,30.17,East,84,11.0,16.0,30,0.00,,,-99.99,,2013-01-20 23:53:00,
2013-01-20 17:03:00,39.0,11.0,30.18,East,81,9.0,11.0,31,0.00,,,-99.99,,2013-01-21 00:03:00,
2013-01-20 17:13:00,38.0,11.0,30.17,East,92,6.0,13.0,32,0.00,,,-99.99,,2013-01-21 00:13:00,
2013-01-20 17:22:00,38.0,11.0,30.18,East,93,9.0,10.0,33,0.00,,,-99.99,,2013-01-21 00:22:00,
2013-01-20 17:33:00,38.0,11.0,30.18,ENE,72,8.0,14.0,33,0.00,,,-99.99,,2013-01-21 00:33:00,
2013-01-20 17:42:00,37.0,12.0,30.19,East,87,5.0,9.0,34,0.00,,,-99.99,,2013-01-21 00:42:00,
2013-01-20 17:53:00,36.0,12.0,30.19,ENE,76,8.0,10.0,36,0.00,,,-99.99,,2013-01-21 00:53:00,
2013-01-20 18:03:00,36.0,13.0,30.20,ENE,77,9.0,12.0,37,0.00,,,-99.99,,2013-01-21 01:03:00,
2013-01-20 18:12:00,35.0,14.0,30.20,ENE,72,7.0,11.0,40,0.00,,,-99.99,,2013-01-21 01:12:00,
2013-01-20 18:22:00,34.0,14.0,30.20,East,87,7.0,13.0,42,0.00,,,-99.99,,2013-01-21 01:22:00,
2013-01-20 18:32:00,34.0,14.0,30.20,ESE,113,9.0,14.0,42,0.00,,,-99.99,,2013-01-21 01:32:00,
2013-01-20 18:43:00,34.0,14.0,30.20,ESE,112,6.0,11.0,43,0.00,,,-99.99,,2013-01-21 01:43:00,
2013-01-20 18:52:00,34.0,14.0,30.21,SE,132,4.0,11.0,44,0.00,,,-99.99,,2013-01-21 01:52:00,
2013-01-20 19:03:00,33.0,15.0,30.21,East,98,7.0,7.0,46,0.00,,,-99.99,,2013-01-21 02:03:00,
2013-01-20 19:12:00,33.0,15.0,30.21,East,90,1.0,7.0,47,0.00,,,-99.99,,2013-01-21 02:12:00,
2013-01-20 19:23:00,32.0,14.0,30.21,NE,34,1.0,2.0,48,0.00,,,-99.99,,2013-01-21 02:23:00,
2013-01-20 19:33:00,32.0,15.0,30.21,North,1,4.0,5.0,49,0.00,,,-99.99,,2013-01-21 02:33:00,
2013-01-20 19:42:00,32.0,15.0,30.21,NNE,15,5.0,9.0,49,0.00,,,-99.99,,2013-01-21 02:42:00,
2013-01-20 19:53:00,30.0,14.0,30.21,NNE,28,7.0,10.0,51,0.00,,,-99.99,,2013-01-21 02:53:00,
2013-01-20 20:03:00,29.0,15.0,30.21,NE,42,7.0,11.0,56,0.00,,,-99.99,,2013-01-21 03:03:00,
2013-01-20 20:12:00,29.0,15.0,30.21,NNE,26,5.0,9.0,57,0.00,,,-99.99,,2013-01-21 03:12:00,
2013-01-20 20:23:00,28.0,15.0,30.21,NNE,29,5.0,7.0,58,0.00,,,-99.99,,2013-01-21 03:23:00,
2013-01-20 20:33:00,28.0,16.0,30.21,North,8,4.0,7.0,61,0.00,,,-99.99,,2013-01-21 03:33:00,
2013-01-20 20:43:00,27.0,16.0,30.21,NE,41,5.0,5.0,61,0.00,,,-99.99,,2013-01-21 03:43:00,
2013-01-20 20:52:00,27.0,16.0,30.21,NNW,344,2.0,5.0,64,0.00,,,-99.99,,2013-01-21 03:52:00,
2013-01-20 21:03:00,26.0,16.0,30.20,NNE,21,4.0,5.0,64,0.00,,,-99.99,,2013-01-21 04:03:00,
2013-01-20 21:12:00,26.0,17.0,30.20,North,11,3.0,6.0,67,0.00,,,-99.99,,2013-01-21 04:12:00,
2013-01-20 21:23:00,25.0,16.0,30.21,NW,306,3.0,5.0,68,0.00,,,-99.99,,2013-01-21 04:23:00,
2013-01-20 21:32:00,25.0,17.0,30.21,NW,313,4.0,6.0,70,0.00,,,-99.99,,2013-01-21 04:32:00,
2013-01-20 21:42:00,25.0,17.0,30.21,NW,307,3.0,6.0,72,0.00,,,-99.99,,2013-01-21 04:42:00,
2013-01-20 21:52:00,25.0,18.0,30.23,WNW,300,5.0,6.0,73,0.00,,,-99.99,,2013-01-21 04:52:00,
2013-01-20 22:03:00,24.0,17.0,30.23,NW,317,4.0,6.0,75,0.00,,,-99.99,,2013-01-21 05:03:00,
2013-01-20 22:12:00,24.0,18.0,30.23,WNW,289,5.0,6.0,75,0.00,,,-99.99,,2013-01-21 05:12:00,
2013-01-20 22:22:00,25.0,18.0,30.23,NW,310,7.0,8.0,75,0.00,,,-99.99,,2013-01-21 05:22:00,
2013-01-20 22:33:00,25.0,18.0,30.23,NNW,345,3.0,8.0,75,0.00,,,-99.99,,2013-01-21 05:33:00,
2013-01-20 22:42:00,24.0,18.0,30.23,NNE,20,3.0,6.0,76,0.00,,,-99.99,,2013-01-21 05:42:00,
2013-01-20 22:52:00,24.0,18.0,30.23,NNE,29,3.0,7.0,77,0.00,,,-99.99,,2013-01-21 05:52:00,
2013-01-20 23:02:00,24.0,18.0,30.23,ENE,76,1.0,5.0,77,0.00,,,-99.99,,2013-01-21 06:02:00,
2013-01-20 23:12:00,23.0,18.0,30.23,North,0,1.0,3.0,78,0.00,,,-99.99,,2013-01-21 06:12:00,
2013-01-20 23:23:00,23.0,18.0,30.21,NW,325,3.0,3.0,79,0.00,,,-99.99,,2013-01-21 06:23:00,
2013-01-20 23:33:00,23.0,18.0,30.23,SW,229,2.0,3.0,80,0.00,,,-99.99,,2013-01-21 06:33:00,
2013-01-20 23:43:00,23.0,18.0,30.21,West,264,2.0,6.0,80,0.00,,,-99.99,,2013-01-21 06:43:00,
2013-01-20 23:52:00,22.0,17.0,30.21,SSW,206,2.0,4.0,78,0.00,,,-99.99,,2013-01-21 06:52:00,